Retour au catalogue

STARLINK-37008

ActifCommunicationsVLEO
NORAD 68564·PAYLOAD·🇺🇸 United States

Lancé Apr 2, 2026 depuis Cape Canaveral Space Force Station

Loading…

Prochains Passages (prochaines 24 heures)

TLE

FraisSource: CelesTrak SupGP

Époque: Sep 14, 2026, 23:18 UTC

1 68564C 26070Y   26257.97131944 -.00027226  00000+0 -80410-3 0  2577
2 68564  53.1587 199.2698 0001259  84.7385 228.7016 15.34415604    16

Suivez STARLINK-37008 en temps réel avec AllMySat

Download on the App Store